Flight Track Log - Related Links

Times and Time Zones

All times are in EDT time to prevent confusion due to time zone crossing. See the AFL150 flight status page for this flight to view local times or setup timezone preferences in your user account.

Time Position Orientation Groundspeed Altitude Reporting Facility
EDT Latitude Longitude Course Direction KTS MPH feet Rate Location/Type
Tue 06:16:00 AM 56.0590 37.1554 312° West  Level FlightAware Approximate
Tue 06:17:00 AM 56.1420 36.9859 311° West  Level FlightAware Approximate
Tue 06:18:00 AM 56.2248 36.8156 311° West  Level FlightAware Approximate
Tue 06:19:00 AM 56.3074 36.6445 311° West  Level FlightAware Approximate
Tue 06:19:32 AM 56.0013 36.8973 317° Northwest 274 315 11,200  Level FlightAware ADS-B
Tue 06:42:37 AM 56.5328 32.5437 318° Northwest 459 528 36,000 883 Climbing FlightAware ADS-B
Tue 06:47:38 AM 57.2422 31.6544 328° Northwest 462 532 36,000  Level FlightAware ADS-B
Tue 06:48:40 AM 57.3328 31.5501 328° Northwest 463 533 36,000  Level FlightAware ADS-B
Tue 06:49:44 AM 57.4206 31.4468 323° Northwest 464 534 36,000  Level FlightAware ADS-B
Tue 06:50:16 AM 57.4139 31.4555 322° Northwest 466 536 36,000  Level FlightAware ADS-B
Tue 06:51:47 AM 57.6641 31.0520 307° West 470 541 36,000  Level FlightAware ADS-B
Tue 06:52:36 AM 57.6574 31.0685 307° West 470 541 36,000  Level FlightAware ADS-B
Tue 06:53:55 AM 57.8097 30.6099 297° West 470 541 36,000  Level FlightAware ADS-B
Tue 06:54:50 AM 57.8517 30.4561 297° West 467 537 36,000  Level FlightAware ADS-B
Tue 06:55:55 AM 57.9272 30.1765 297° West 467 537 36,000  Level FlightAware ADS-B
Tue 06:56:58 AM 57.9777 29.9881 297° West 467 537 36,000  Level FlightAware ADS-B
Tue 06:57:59 AM 58.0388 29.7590 297° West 468 539 36,000  Level FlightAware ADS-B
Tue 06:59:00 AM 58.0836 29.5336 277° West 474 545 36,000  Level FlightAware ADS-B
Tue 07:00:01 AM 58.0982 29.2684 276° West 471 542 36,000  Level FlightAware ADS-B
Tue 07:01:08 AM 58.0987 28.9668 262° West 477 549 36,000  Level FlightAware ADS-B
Tue 07:02:09 AM 58.0673 28.7223 255° West 480 552 36,000  Level FlightAware ADS-B
Tue 07:06:16 AM 58.1305 27.7504 281° West 476 548 36,000  Level FlightAware ADS-B
Tue 07:07:16 AM 58.1596 27.4743 285° West 468 539 36,000  Level FlightAware ADS-B
Tue 07:08:19 AM 58.1948 27.2273 285° West 464 534 36,000  Level FlightAware ADS-B
Tue 07:09:22 AM 58.2288 26.9823 285° West 459 528 36,000  Level FlightAware ADS-B
Tue 07:10:22 AM 58.2602 26.7530 285° West 457 526 36,000  Level FlightAware ADS-B
Tue 07:11:16 AM 58.2891 26.5389 284° West 458 527 36,000  Level FlightAware ADS-B
Tue 07:12:28 AM 58.3223 26.2883 284° West 455 524 36,000  Level FlightAware ADS-B
Tue 07:13:28 AM 58.3528 26.0558 284° West 452 520 36,000  Level FlightAware ADS-B
Tue 07:14:17 AM 58.3790 25.8528 284° West 450 518 36,000  Level FlightAware ADS-B
Tue 07:14:50 AM 58.3916 25.7538 284° West 450 518 36,000  Level FlightAware ADS-B
Tue 07:15:22 AM 58.4122 25.5915 284° West 450 518 36,000  Level FlightAware ADS-B
Tue 07:15:55 AM 58.4257 25.4836 283° West 451 519 36,000  Level FlightAware ADS-B
Tue 07:16:25 AM 58.4404 25.3649 283° West 452 520 36,000  Level FlightAware ADS-B
Tue 07:16:55 AM 58.4565 25.2351 283° West 452 520 36,000  Level FlightAware ADS-B
Tue 07:17:32 AM 58.4743 25.0893 283° West 450 518 36,000  Level FlightAware ADS-B
Tue 07:18:02 AM 58.4882 24.9733 283° West 450 518 36,000  Level FlightAware ADS-B
Tue 07:18:33 AM 58.5024 24.8557 283° West 449 517 36,000  Level FlightAware ADS-B
Tue 07:19:12 AM 58.5158 24.7432 283° West 451 519 36,000  Level FlightAware ADS-B
Tue 07:19:52 AM 58.5379 24.5558 283° West 450 518 36,000  Level FlightAware ADS-B
Tue 07:20:30 AM 58.5489 24.4607 283° West 451 519 36,000  Level FlightAware ADS-B
Tue 07:21:00 AM 58.5675 24.2997 282° West 452 520 36,000  Level FlightAware ADS-B
Tue 07:21:42 AM 58.5850 24.1460 282° West 446 513 36,000  Level FlightAware ADS-B
Tue 07:22:12 AM 58.6008 24.0063 282° West 442 509 36,000  Level FlightAware ADS-B
Tue 07:22:43 AM 58.6083 23.9394 282° West 441 507 36,000  Level FlightAware ADS-B
Tue 07:23:22 AM 58.6304 23.7398 282° West 439 505 36,000  Level FlightAware ADS-B
Tue 07:23:53 AM 58.6429 23.6255 282° West 439 505 36,000  Level FlightAware ADS-B
Tue 07:24:24 AM 58.6552 23.5117 282° West 439 505 36,000  Level FlightAware ADS-B
Tue 07:25:10 AM 58.6738 23.3369 282° West 436 502 36,000  Level FlightAware ADS-B
Tue 07:26:02 AM 58.6908 23.1773 281° West 436 502 36,000  Level FlightAware ADS-B
Tue 07:26:33 AM 58.7076 23.0169 281° West 436 502 36,000  Level FlightAware ADS-B
Tue 07:27:04 AM 58.7187 22.9094 281° West 436 502 36,000  Level FlightAware ADS-B
Tue 07:27:34 AM 58.7310 22.7889 281° West 435 501 36,000  Level FlightAware ADS-B
Tue 07:28:04 AM 58.7421 22.6799 281° West 434 499 36,000  Level FlightAware ADS-B
Tue 07:28:43 AM 58.7574 22.5266 281° West 431 496 36,000  Level FlightAware ADS-B
Tue 07:29:33 AM 58.7752 22.3462 281° West 417 480 36,000  Level FlightAware ADS-B
Tue 07:30:03 AM 58.7865 22.2309 281° West 415 478 36,000  Level FlightAware ADS-B
Tue 07:30:34 AM 58.7969 22.1235 281° West 414 476 36,000  Level FlightAware ADS-B
Tue 07:31:13 AM 58.8109 21.9776 280° West 411 473 36,000  Level FlightAware ADS-B
Tue 07:31:54 AM 58.8247 21.8328 280° West 412 474 36,000  Level FlightAware ADS-B
Tue 07:32:33 AM 58.8380 21.6896 280° West 413 475 36,000  Level FlightAware ADS-B
Tue 07:33:39 AM 58.8593 21.4557 280° West 410 472 36,000  Level FlightAware ADS-B
Tue 07:34:19 AM 58.8617 21.4303 280° West 410 472 36,000  Level FlightAware ADS-B
Tue 07:35:21 AM 58.9037 21.0927 280° West 410 472 36,000  Level FlightAware ADS-B
Tue 07:36:06 AM 58.9419 20.8617 287° West 402 463 36,000  Level FlightAware ADS-B
Tue 07:36:54 AM 58.9561 20.7751 288° West 405 466 36,000  Level FlightAware ADS-B
Tue 07:37:45 AM 58.9845 20.5997 287° West 407 468 36,000  Level FlightAware ADS-B
Tue 07:38:25 AM 59.0063 20.4642 287° West 409 471 36,000  Level FlightAware ADS-B
Tue 07:39:04 AM 59.0290 20.3223 287° West 411 473 36,000  Level FlightAware ADS-B
Tue 07:39:37 AM 59.0469 20.2094 287° West 413 475 36,000  Level FlightAware ADS-B
Tue 07:40:15 AM 59.0658 20.0898 287° West 413 475 36,000  Level FlightAware ADS-B
Tue 07:40:55 AM 59.0906 19.9308 287° West 412 474 36,000  Level FlightAware ADS-B
Tue 07:41:45 AM 59.1168 19.7614 287° West 411 473 36,000  Level FlightAware ADS-B
Tue 07:42:28 AM 59.1407 19.6055 287° West 411 473 36,000  Level FlightAware ADS-B
Tue 07:43:08 AM 59.1624 19.4622 286° West 411 473 36,000  Level FlightAware ADS-B
Tue 07:43:40 AM 59.1796 19.3480 286° West 412 474 36,000  Level FlightAware ADS-B
Tue 07:44:28 AM 59.2049 19.1794 286° West 410 472 36,000  Level FlightAware ADS-B
Tue 07:45:05 AM 59.2239 19.0508 286° West 412 474 36,000  Level FlightAware ADS-B
Tue 07:45:48 AM 59.2468 18.8948 286° West 413 475 36,000  Level FlightAware ADS-B
Tue 07:46:29 AM 59.2680 18.7495 286° West 415 478 36,000  Level FlightAware ADS-B
Tue 07:47:08 AM 59.2869 18.6181 286° West 415 478 36,000  Level FlightAware ADS-B
Tue 07:47:48 AM 59.3055 18.4875 286° West 415 478 36,000  Level FlightAware ADS-B
Tue 07:48:28 AM 59.3257 18.3454 286° West 415 478 36,000  Level FlightAware ADS-B
Tue 07:49:31 AM 59.3602 18.0995 285° West 414 476 36,000  Level FlightAware ADS-B
Tue 07:50:10 AM 59.3805 17.9533 285° West 414 476 36,000  Level FlightAware ADS-B
Tue 07:50:50 AM 59.4007 17.8051 285° West 415 478 36,000  Level FlightAware ADS-B
Tue 07:51:30 AM 59.4201 17.6627 285° West 415 478 36,000  Level FlightAware ADS-B
Tue 07:52:10 AM 59.4397 17.5177 285° West 416 479 36,000  Level FlightAware ADS-B
Tue 07:52:50 AM 59.4593 17.3706 285° West 417 480 36,000  Level FlightAware ADS-B
Tue 07:53:30 AM 59.4783 17.2267 285° West 418 481 36,000  Level FlightAware ADS-B
Tue 07:54:10 AM 59.4980 17.0766 284° West 420 483 36,000  Level FlightAware ADS-B
Tue 07:54:51 AM 59.5170 16.9299 284° West 421 484 36,000  Level FlightAware ADS-B
Tue 07:55:30 AM 59.5358 16.7826 284° West 422 486 36,000  Level FlightAware ADS-B
Tue 07:56:10 AM 59.5537 16.6421 284° West 424 488 36,000  Level FlightAware ADS-B
Tue 07:56:52 AM 59.5746 16.4757 284° West 423 487 36,000  Level FlightAware ADS-B
Tue 07:57:32 AM 59.5932 16.3267 284° West 423 487 36,000  Level FlightAware ADS-B
Tue 07:58:11 AM 59.6114 16.1791 284° West 423 487 36,000  Level FlightAware ADS-B
Tue 07:58:50 AM 59.6291 16.0336 283° West 422 486 36,000  Level FlightAware ADS-B
Tue 07:59:30 AM 59.6470 15.8855 283° West 421 484 36,000  Level FlightAware ADS-B
Tue 08:00:11 AM 59.6657 15.7286 283° West 421 484 36,000  Level FlightAware ADS-B
Tue 08:00:55 AM 59.6749 15.6505 283° West 422 486 36,000  Level FlightAware ADS-B
Tue 08:01:40 AM 59.7144 15.3121 282° West 422 486 36,000  Level FlightAware ADS-B
Tue 08:02:10 AM 59.7285 15.1979 286° West 421 484 36,000  Level FlightAware ADS-B
Tue 08:02:40 AM 59.7475 15.0852 288° West 421 484 36,000  Level FlightAware ADS-B
Tue 08:03:10 AM 59.7651 14.9783 288° West 420 483 36,000  Level FlightAware ADS-B
Tue 08:03:40 AM 59.7827 14.8675 286° West 417 480 36,000  Level FlightAware ADS-B
Tue 08:04:10 AM 59.8000 14.7560 286° West 416 479 36,000  Level FlightAware ADS-B
Tue 08:04:40 AM 59.8167 14.6483 286° West 416 479 36,000  Level FlightAware ADS-B
Tue 08:05:10 AM 59.8337 14.5385 286° West 415 478 36,000  Level FlightAware ADS-B
Tue 08:05:55 AM 59.8592 14.3750 286° West 415 478 36,000  Level FlightAware ADS-B
Tue 08:06:25 AM 59.8766 14.2622 286° West 417 480 36,000  Level FlightAware ADS-B
Tue 08:07:10 AM 59.9015 14.0987 286° West 418 481 36,000  Level FlightAware ADS-B
Tue 08:07:40 AM 59.9185 13.9868 286° West 418 481 36,000  Level FlightAware ADS-B
Tue 08:08:10 AM 59.9348 13.8779 286° West 418 481 36,000  Level FlightAware ADS-B
Tue 08:08:54 AM 59.9594 13.7133 285° West 419 482 36,000  Level FlightAware ADS-B
Tue 08:09:24 AM 59.9752 13.6064 286° West 419 482 36,000  Level FlightAware ADS-B
Tue 08:09:55 AM 59.9928 13.4868 286° West 418 481 36,000  Level FlightAware ADS-B
Tue 08:10:40 AM 60.0166 13.3224 286° West 417 480 36,000  Level FlightAware ADS-B
Tue 08:11:10 AM 60.0328 13.2097 286° West 417 480 36,000  Level FlightAware ADS-B
Tue 08:11:55 AM 60.0565 13.0439 286° West 419 482 36,000  Level FlightAware ADS-B
Tue 08:12:25 AM 60.0725 12.9314 286° West 420 483 36,000  Level FlightAware ADS-B
Tue 08:12:55 AM 60.0879 12.8223 286° West 421 484 36,000  Level FlightAware ADS-B
Tue 08:13:25 AM 60.1037 12.7092 286° West 422 486 36,000  Level FlightAware ADS-B
Tue 08:13:55 AM 60.1197 12.5947 286° West 422 486 36,000  Level FlightAware ADS-B
Tue 08:14:25 AM 60.1348 12.4845 285° West 424 488 36,000  Level FlightAware ADS-B
Tue 08:14:55 AM 60.1505 12.3706 285° West 425 489 36,000  Level FlightAware ADS-B
Tue 08:15:25 AM 60.1656 12.2597 285° West 425 489 36,000  Level FlightAware ADS-B
Tue 08:16:10 AM 60.1893 12.0835 284° West 423 487 36,000  Level FlightAware ADS-B
Tue 08:16:54 AM 60.2113 11.9186 284° West 421 484 36,000  Level FlightAware ADS-B
Tue 08:17:25 AM 60.2270 11.8000 284° West 421 484 36,000  Level FlightAware ADS-B
Tue 08:17:55 AM 60.2416 11.6883 284° West 421 484 36,000  Level FlightAware ADS-B
Tue 08:18:25 AM 60.2565 11.5731 284° West 416 479 36,000  Level FlightAware ADS-B
Tue 08:19:08 AM 60.2771 11.4141 284° West 412 474 36,000  Level FlightAware ADS-B
Tue 08:19:40 AM 60.2923 11.2941 284° West 413 475 36,000  Level FlightAware ADS-B
Tue 08:20:10 AM 60.3063 11.1841 284° West 412 474 36,000  Level FlightAware ADS-B
Tue 08:20:40 AM 60.3204 11.0721 284° West 411 473 36,000  Level FlightAware ADS-B
Tue 08:21:11 AM 60.3346 10.9587 284° West 409 471 36,000  Level FlightAware ADS-B
Tue 08:21:55 AM 60.3547 10.7959 284° West 411 473 36,000  Level FlightAware ADS-B
Tue 08:22:31 AM 60.3713 10.6595 284° West 412 474 36,000  Level FlightAware ADS-B
Tue 08:24:06 AM 60.4136 10.3086 284° West 409 471 36,000  Level FlightAware ADS-B
Tue 08:24:41 AM 60.4291 10.1780 283° West 409 471 36,000  Level FlightAware ADS-B
Tue 08:25:17 AM 60.4442 10.0494 283° West 409 471 36,000  Level FlightAware ADS-B
Tue 08:25:47 AM 60.4580 9.9314 282° West 408 470 36,000  Level FlightAware ADS-B
Tue 08:26:18 AM 60.4714 9.8148 282° West 408 470 36,000  Level FlightAware ADS-B
Tue 08:28:16 AM 60.5213 9.3725 282° West 413 475 36,000  Level FlightAware ADS-B
Tue 08:29:48 AM 60.5594 9.0248 281° West 411 473 36,000  Level FlightAware ADS-B
Tue 08:32:57 AM 60.6356 8.3015 282° West 418 481 36,000  Level FlightAware ADS-B
Tue 08:33:00 AM 60.6474 8.2242 282° West  Level Estimated
Tue 08:35:00 AM 60.6898 7.7867 282° West  Level Estimated
Tue 08:36:00 AM 60.7155 7.5350 282° West  Level Estimated
Tue 08:37:00 AM 60.7407 7.2828 282° West  Level Estimated
Tue 08:38:00 AM 60.7655 7.0303 281° West  Level Estimated
Tue 08:39:00 AM 60.7897 6.7773 281° West  Level Estimated
Tue 08:40:00 AM 60.8136 6.5241 281° West  Level Estimated
Tue 08:41:00 AM 60.8369 6.2704 281° West  Level Estimated
Tue 08:42:00 AM 60.8597 6.0163 281° West  Level Estimated
Tue 08:43:00 AM 60.8821 5.7619 280° West  Level Estimated
Tue 08:44:00 AM 60.9040 5.5072 280° West  Level Estimated
Tue 08:45:00 AM 60.9254 5.2521 280° West  Level Estimated
Tue 08:46:00 AM 60.9463 4.9966 280° West  Level Estimated
Tue 08:47:00 AM 60.9668 4.7409 279° West  Level Estimated
Tue 08:48:00 AM 60.9867 4.4848 279° West  Level Estimated
Tue 08:49:00 AM 61.0062 4.2283 279° West  Level Estimated
Tue 08:50:00 AM 61.0252 3.9716 279° West  Level Estimated
Tue 08:51:00 AM 61.0437 3.7146 279° West  Level Estimated
Tue 08:52:00 AM 61.0617 3.4573 278° West  Level Estimated
Tue 08:53:00 AM 61.0792 3.1996 278° West  Level Estimated
Tue 08:54:00 AM 61.0962 2.9418 278° West  Level Estimated
Tue 08:55:00 AM 61.1128 2.6836 278° West  Level Estimated
Tue 08:56:00 AM 61.1288 2.4251 277° West  Level Estimated
Tue 08:57:00 AM 61.1444 2.1664 277° West  Level Estimated
Tue 08:58:00 AM 61.1594 1.9075 277° West  Level Estimated
Tue 08:59:00 AM 61.1740 1.6483 277° West  Level Estimated
Tue 09:00:00 AM 61.1880 1.3889 277° West  Level Estimated
Tue 09:01:00 AM 61.2016 1.1292 276° West  Level Estimated
Tue 09:02:00 AM 61.2147 0.8694 276° West  Level Estimated
Tue 09:03:00 AM 61.2272 0.6093 276° West  Level Estimated
Tue 09:04:00 AM 61.2393 0.3490 276° West  Level Estimated
Tue 09:05:00 AM 61.2509 0.0885 275° West  Level Estimated
Tue 09:06:00 AM 61.2620 -0.1722 275° West  Level Estimated
Tue 09:07:00 AM 61.2725 -0.4330 275° West  Level Estimated
Tue 09:08:00 AM 61.2826 -0.6940 275° West  Level Estimated
Tue 09:09:00 AM 61.2922 -0.9552 274° West  Level Estimated
Tue 09:10:00 AM 61.3013 -1.2166 274° West  Level Estimated
Tue 09:11:00 AM 61.3098 -1.4780 274° West  Level Estimated
Tue 09:12:00 AM 61.3179 -1.7397 274° West  Level Estimated
Tue 09:13:00 AM 61.3255 -2.0014 274° West  Level Estimated
Tue 09:14:00 AM 61.3325 -2.2633 273° West  Level Estimated
Tue 09:15:00 AM 61.3391 -2.5253 273° West  Level Estimated
Tue 09:16:00 AM 61.3451 -2.7874 273° West  Level Estimated
Tue 09:17:00 AM 61.3507 -3.0496 273° West  Level Estimated
Tue 09:18:00 AM 61.3557 -3.3119 272° West  Level Estimated
Tue 09:19:00 AM 61.3602 -3.5742 272° West  Level Estimated
Tue 09:20:00 AM 61.3643 -3.8367 272° West  Level Estimated
Tue 09:21:00 AM 61.3678 -4.0992 272° West  Level Estimated
Tue 09:22:00 AM 61.3708 -4.3617 271° West  Level Estimated
Tue 09:23:00 AM 61.3733 -4.6243 271° West  Level Estimated
Tue 09:24:00 AM 61.3753 -4.8870 271° West  Level Estimated
Tue 09:25:00 AM 61.3768 -5.1497 271° West  Level Estimated
Tue 09:26:00 AM 61.3778 -5.4123 271° West  Level Estimated
Tue 09:27:00 AM 61.3783 -5.6750 270° West  Level Estimated
Tue 09:28:00 AM 61.3783 -5.9377 270° West  Level Estimated
Tue 09:29:00 AM 61.3777 -6.2004 270° West  Level Estimated
Tue 09:30:00 AM 61.3767 -6.4631 270° West  Level Estimated
Tue 09:31:00 AM 61.3752 -6.7258 269° West  Level Estimated
Tue 09:32:00 AM 61.3731 -6.9884 269° West  Level Estimated
Tue 09:33:00 AM 61.3706 -7.2510 269° West  Level Estimated
Tue 09:34:00 AM 61.3675 -7.5136 269° West  Level Estimated
Tue 09:35:00 AM 61.3639 -7.7761 268° West  Level Estimated
Tue 09:36:00 AM 61.3599 -8.0385 268° West  Level Estimated
Tue 09:37:00 AM 61.3553 -8.3009 268° West  Level Estimated
Tue 09:38:00 AM 61.3502 -8.5631 268° West  Level Estimated
Tue 09:39:00 AM 61.3446 -8.8253 268° West  Level Estimated
Tue 09:40:00 AM 61.3385 -9.0874 267° West  Level Estimated
Tue 09:41:00 AM 61.3319 -9.3494 267° West  Level Estimated
Tue 09:42:00 AM 61.3248 -9.6113 267° West  Level Estimated
Tue 09:43:00 AM 61.3172 -9.8730 267° West  Level Estimated
Tue 09:44:00 AM 61.3091 -10.1346 266° West  Level Estimated
Tue 09:45:00 AM 61.3005 -10.3961 266° West  Level Estimated
Tue 09:46:00 AM 61.2914 -10.6574 266° West  Level Estimated
Tue 09:47:00 AM 61.2818 -10.9186 266° West  Level Estimated
Tue 09:48:00 AM 61.2717 -11.1796 266° West  Level Estimated
Tue 09:49:00 AM 61.2611 -11.4405 265° West  Level Estimated
Tue 09:50:00 AM 61.2500 -11.7011 265° West  Level Estimated
Tue 09:51:00 AM 61.2383 -11.9616 265° West  Level Estimated
Tue 09:52:00 AM 61.2262 -12.2219 265° West  Level Estimated
Tue 09:53:00 AM 61.2136 -12.4819 264° West  Level Estimated
Tue 09:54:00 AM 61.2005 -12.7418 264° West  Level Estimated
Tue 09:55:00 AM 61.1869 -13.0014 264° West  Level Estimated
Tue 09:56:00 AM 61.1728 -13.2608 264° West  Level Estimated
Tue 09:57:00 AM 61.1582 -13.5200 263° West  Level Estimated
Tue 09:58:00 AM 61.1431 -13.7789 263° West  Level Estimated
Tue 09:59:00 AM 61.1275 -14.0376 263° West  Level Estimated
Tue 10:00:00 AM 61.1114 -14.2960 263° West  Level Estimated
Tue 10:01:00 AM 61.0948 -14.5541 263° West  Level Estimated
Tue 10:02:00 AM 61.0778 -14.8120 262° West  Level Estimated
Tue 10:03:00 AM 61.0602 -15.0696 262° West  Level Estimated
Tue 10:04:00 AM 61.0422 -15.3269 262° West  Level Estimated
Tue 10:05:00 AM 61.0236 -15.5839 262° West  Level Estimated
Tue 10:06:00 AM 61.0046 -15.8406 261° West  Level Estimated
Tue 10:07:00 AM 60.9851 -16.0970 261° West  Level Estimated
Tue 10:08:00 AM 60.9651 -16.3531 261° West  Level Estimated
Tue 10:09:00 AM 60.9446 -16.6088 261° West  Level Estimated
Tue 10:10:00 AM 60.9237 -16.8642 261° West  Level Estimated
Tue 10:11:00 AM 60.9022 -17.1193 260° West  Level Estimated
Tue 10:12:00 AM 60.8803 -17.3740 260° West  Level Estimated
Tue 10:13:00 AM 60.8579 -17.6284 260° West  Level Estimated
Tue 10:14:00 AM 60.8350 -17.8824 260° West  Level Estimated
Tue 10:15:00 AM 60.8116 -18.1361 259° West  Level Estimated
Tue 10:16:00 AM 60.7878 -18.3893 259° West  Level Estimated
Tue 10:17:00 AM 60.7634 -18.6422 259° West  Level Estimated
Tue 10:18:00 AM 60.7386 -18.8947 259° West  Level Estimated
Tue 10:19:00 AM 60.7134 -19.1469 259° West  Level Estimated
Tue 10:20:00 AM 60.6876 -19.3986 258° West  Level Estimated
Tue 10:21:00 AM 60.6614 -19.6499 258° West  Level Estimated
Tue 10:22:00 AM 60.6347 -19.9007 258° West  Level Estimated
Tue 10:23:00 AM 60.6076 -20.1512 258° West  Level Estimated
Tue 10:24:00 AM 60.5799 -20.4013 257° West  Level Estimated
Tue 10:25:00 AM 60.5518 -20.6509 257° West  Level Estimated
Tue 10:26:00 AM 60.5233 -20.9001 257° West  Level Estimated
Tue 10:27:00 AM 60.4943 -21.1488 257° West  Level Estimated
Tue 10:28:00 AM 60.4648 -21.3971 257° West  Level Estimated
Tue 10:29:00 AM 60.4349 -21.6449 256° West  Level Estimated
Tue 10:30:00 AM 60.4045 -21.8923 256° West  Level Estimated
Tue 10:31:00 AM 60.3736 -22.1392 256° West  Level Estimated
Tue 10:32:00 AM 60.3423 -22.3857 256° West  Level Estimated
Tue 10:33:00 AM 60.3105 -22.6316 255° West  Level Estimated
Tue 10:34:00 AM 60.2783 -22.8771 255° West  Level Estimated
Tue 10:35:00 AM 60.2456 -23.1221 255° West  Level Estimated
Tue 10:36:00 AM 60.2125 -23.3666 255° West  Level Estimated
Tue 10:37:00 AM 60.1789 -23.6106 255° West  Level Estimated
Tue 10:38:00 AM 60.1449 -23.8541 254° West  Level Estimated
Tue 10:39:00 AM 60.1105 -24.0971 254° West  Level Estimated
Tue 10:40:00 AM 60.0756 -24.3396 254° West  Level Estimated
Tue 10:41:00 AM 60.0402 -24.5816 254° West  Level Estimated
Tue 10:42:00 AM 60.0044 -24.8230 254° West  Level Estimated
Tue 10:43:00 AM 59.9682 -25.0640 253° West  Level Estimated
Tue 10:44:00 AM 59.9315 -25.3044 253° West  Level Estimated
Tue 10:45:00 AM 59.8944 -25.5442 253° West  Level Estimated
Tue 10:46:00 AM 59.8568 -25.7836 253° West  Level Estimated
Tue 10:47:00 AM 59.8189 -26.0223 253° West  Level Estimated
Tue 10:48:00 AM 59.7805 -26.2606 252° West  Level Estimated
Tue 10:49:00 AM 59.7416 -26.4983 252° West  Level Estimated
Tue 10:50:00 AM 59.7024 -26.7354 252° West  Level Estimated
Tue 10:51:00 AM 59.6627 -26.9720 252° West  Level Estimated
Tue 10:52:00 AM 59.6226 -27.2080 252° West  Level Estimated
Tue 10:53:00 AM 59.5820 -27.4434 251° West  Level Estimated
Tue 10:54:00 AM 59.5410 -27.6783 251° West  Level Estimated
Tue 10:55:00 AM 59.4997 -27.9126 251° West  Level Estimated
Tue 10:56:00 AM 59.4579 -28.1463 251° West  Level Estimated
Tue 10:57:00 AM 59.4157 -28.3794 250° West  Level Estimated
Tue 10:58:00 AM 59.3730 -28.6120 250° West  Level Estimated
Tue 10:59:00 AM 59.3300 -28.8440 250° West  Level Estimated
Tue 11:00:00 AM 59.2865 -29.0754 250° West  Level Estimated
Tue 11:01:00 AM 59.2427 -29.3060 250° West  Level Estimated
Tue 11:02:00 AM 59.1985 -29.5358 250° West  Level Estimated
Tue 11:03:00 AM 59.1539 -29.7650 249° West  Level Estimated
Tue 11:04:00 AM 59.1089 -29.9936 249° West  Level Estimated
Tue 11:05:00 AM 59.0635 -30.2215 249° West  Level Estimated
Tue 11:06:00 AM 59.0177 -30.4489 249° West  Level Estimated
Tue 11:07:00 AM 58.9715 -30.6757 249° West  Level Estimated
Tue 11:08:00 AM 58.9249 -30.9019 248° West  Level Estimated
Tue 11:09:00 AM 58.8780 -31.1274 248° West  Level Estimated
Tue 11:10:00 AM 58.8306 -31.3524 248° West  Level Estimated
Tue 11:11:00 AM 58.7828 -31.5767 248° West  Level Estimated
Tue 11:12:00 AM 58.7347 -31.8004 248° West  Level Estimated
Tue 11:13:00 AM 58.6861 -32.0234 247° West  Level Estimated
Tue 11:14:00 AM 58.6372 -32.2459 247° West  Level Estimated
Tue 11:15:00 AM 58.5879 -32.4677 247° West  Level Estimated
Tue 11:16:00 AM 58.5382 -32.6889 247° West  Level Estimated
Tue 11:17:00 AM 58.4881 -32.9095 247° West  Level Estimated
Tue 11:18:00 AM 58.4377 -33.1295 246° West  Level Estimated
Tue 11:19:00 AM 58.3869 -33.3488 246° West  Level Estimated
Tue 11:20:00 AM 58.3357 -33.5675 246° West  Level Estimated
Tue 11:21:00 AM 58.2841 -33.7855 246° West  Level Estimated
Tue 11:22:00 AM 58.2322 -34.0029 246° West  Level Estimated
Tue 11:23:00 AM 58.1799 -34.2197 245° Southwest  Level Estimated
Tue 11:24:00 AM 58.1272 -34.4358 245° Southwest  Level Estimated
Tue 11:25:00 AM 58.0742 -34.6513 245° Southwest  Level Estimated
Tue 11:26:00 AM 58.0208 -34.8662 245° Southwest  Level Estimated
Tue 11:27:00 AM 57.9670 -35.0804 245° Southwest  Level Estimated
Tue 11:28:00 AM 57.9129 -35.2939 245° Southwest  Level Estimated
Tue 11:29:00 AM 57.8584 -35.5069 244° Southwest  Level Estimated
Tue 11:30:00 AM 57.8036 -35.7191 244° Southwest  Level Estimated
Tue 11:31:00 AM 57.7484 -35.9308 244° Southwest  Level Estimated
Tue 11:32:00 AM 57.6929 -36.1417 244° Southwest  Level Estimated
Tue 11:33:00 AM 57.6370 -36.3521 244° Southwest  Level Estimated
Tue 11:34:00 AM 57.5808 -36.5618 243° Southwest  Level Estimated
Tue 11:34:56 AM 63.3000 -44.0500 242° Southwest 510 587 36,000  Level Gander Center
Tue 11:35:00 AM 57.5242 -36.7708 243° Southwest  Level Estimated
Tue 11:35:56 AM 63.2500 -44.3500 250° West 510 587 36,000  Level Gander Center
Tue 11:36:00 AM 57.4673 -36.9792 243° Southwest  Level Estimated
Tue 11:36:56 AM 63.1667 -44.6500 238° Southwest 510 587 36,000  Level Gander Center
Tue 11:37:00 AM 57.4100 -37.1869 243° Southwest  Level Estimated
Tue 11:37:56 AM 63.1167 -44.9333 249° West 510 587 36,000  Level Gander Center
Tue 11:38:00 AM 57.3524 -37.3940 243° Southwest  Level Estimated
Tue 11:38:56 AM 63.0667 -45.2000 248° West 510 587 36,000  Level Gander Center
Tue 11:39:00 AM 57.2945 -37.6004 243° Southwest  Level Estimated
Tue 11:39:56 AM 63.0167 -45.4833 249° West 510 587 36,000  Level Gander Center
Tue 11:40:00 AM 57.2362 -37.8062 242° Southwest  Level Estimated
Tue 11:40:56 AM 62.9667 -45.7667 249° West 510 587 36,000  Level Gander Center
Tue 11:41:56 AM 62.9000 -46.0500 243° Southwest 510 587 36,000  Level Gander Center
Tue 11:42:56 AM 62.8500 -46.3167 248° West 500 575 36,000  Level Gander Center
Tue 11:43:56 AM 62.7833 -46.6000 243° Southwest 500 575 36,000  Level Gander Center
Tue 11:44:56 AM 62.7167 -46.8833 243° Southwest 500 575 36,000  Level Gander Center
Tue 11:45:56 AM 62.6667 -47.1333 247° West 500 575 36,000  Level Gander Center
Tue 11:46:56 AM 62.6000 -47.4167 243° Southwest 500 575 36,000  Level Gander Center
Tue 11:47:56 AM 62.5333 -47.6667 240° Southwest 500 575 36,000  Level Gander Center
Tue 11:48:56 AM 62.4833 -47.9500 249° West 500 575 36,000  Level Gander Center
Tue 11:49:56 AM 62.4167 -48.1833 238° Southwest 490 564 36,000  Level Gander Center
Tue 11:50:56 AM 62.3667 -48.4667 249° West 490 564 36,000  Level Gander Center
Tue 11:51:56 AM 62.3000 -48.7167 240° Southwest 490 564 36,000  Level Gander Center
Tue 11:52:56 AM 62.2333 -48.9833 242° Southwest 490 564 36,000  Level Gander Center
Tue 11:53:56 AM 62.1833 -49.2333 247° West 490 564 36,000  Level Gander Center
Tue 11:54:56 AM 62.1167 -49.4667 239° Southwest 480 552 36,000  Level Gander Center
Tue 11:55:56 AM 62.0667 -49.7333 248° West 480 552 36,000  Level Gander Center
Tue 11:56:56 AM 61.9833 -49.9833 235° Southwest 480 552 36,000  Level Gander Center
Tue 11:57:56 AM 61.9000 -50.1833 229° Southwest 480 552 36,000  Level Gander Center
Tue 11:59:06 AM 61.8167 -50.4333 235° Southwest 480 552 36,000  Level Gander Center
Tue 12:00:06 PM 61.7333 -50.6333 229° Southwest 470 541 36,000  Level Gander Center
Tue 12:01:06 PM 61.6500 -50.8333 229° Southwest 470 541 36,000  Level Gander Center
Tue 12:01:56 PM 61.5833 -51.0333 235° Southwest 470 541 36,000  Level Gander Center
Tue 12:07:56 PM 61.0667 -52.2333 222° Southwest 460 529 36,000  Level Gander Center
Tue 12:08:56 PM 60.9833 -52.4333 229° Southwest 460 529 36,000  Level Gander Center
Tue 12:09:56 PM 60.9000 -52.6167 227° Southwest 460 529 36,000  Level Gander Center
Tue 12:10:56 PM 60.8333 -52.8500 240° Southwest 460 529 36,000  Level Gander Center
Tue 12:11:00 PM 60.7228 -52.4796 222° Southwest  Level FlightAware Approximate
Tue 12:11:56 PM 60.7333 -53.0333 222° Southwest 460 529 36,000  Level Gander Center
Tue 12:12:00 PM 60.6306 -52.6504 222° Southwest  Level FlightAware Approximate
Tue 12:12:56 PM 60.6500 -53.2333 230° Southwest 460 529 36,000  Level Gander Center
Tue 12:13:00 PM 60.5382 -52.8202 222° Southwest  Level FlightAware Approximate
Tue 12:13:56 PM 60.5667 -53.4167 227° Southwest 460 529 36,000  Level Gander Center
Tue 12:14:56 PM 60.4667 -53.6167 225° Southwest 460 529 36,000  Level Gander Center
Tue 12:15:56 PM 60.4000 -53.8000 234° Southwest 460 529 36,000  Level Gander Center
Tue 12:16:56 PM 60.3167 -53.9833 227° Southwest 460 529 36,000  Level Gander Center
Tue 12:17:56 PM 60.2167 -54.1833 225° Southwest 450 518 36,000  Level Gander Center
Tue 12:18:56 PM 60.1500 -54.3667 234° Southwest 450 518 36,000  Level Gander Center
Tue 12:19:56 PM 60.0500 -54.5500 223° Southwest 450 518 36,000  Level Gander Center
Tue 12:20:56 PM 59.9667 -54.7333 228° Southwest 450 518 36,000  Level Gander Center
Tue 12:21:56 PM 59.8833 -54.9167 228° Southwest 450 518 36,000  Level Gander Center
Tue 12:22:56 PM 59.8000 -55.1000 228° Southwest 450 518 36,000  Level Gander Center
Tue 12:23:56 PM 59.7000 -55.2667 220° Southwest 450 518 36,000  Level Gander Center
Tue 12:24:56 PM 59.6333 -55.4500 234° Southwest 450 518 36,000  Level Gander Center
Tue 12:26:06 PM 59.5167 -55.6667 223° Southwest 460 529 36,000  Level Gander Center
Tue 12:27:06 PM 59.4333 -55.8500 228° Southwest 450 518 36,000  Level Gander Center
Tue 12:28:06 PM 59.3333 -56.0167 220° Southwest 450 518 36,000  Level Gander Center
Tue 12:29:06 PM 59.2500 -56.2000 228° Southwest 450 518 36,000  Level Gander Center
Tue 12:30:06 PM 59.1667 -56.3833 228° Southwest 450 518 36,000  Level Gander Center
Tue 12:31:06 PM 59.0667 -56.5500 221° Southwest 450 518 36,000  Level Gander Center
Tue 12:32:06 PM 59.0000 -56.7167 232° Southwest 450 518 36,000  Level Gander Center
Tue 12:33:06 PM 58.9000 -56.8667 218° Southwest 450 518 36,000  Level Gander Center
Tue 12:34:06 PM 58.8000 -57.0333 221° Southwest 440 506 36,000  Level Gander Center
Tue 12:34:56 PM 58.7333 -57.1667 226° Southwest 440 506 36,000  Level Gander Center
Tue 12:35:56 PM 58.6500 -57.3500 229° Southwest 440 506 36,000  Level Gander Center
Tue 12:36:56 PM 58.5667 -57.5500 231° Southwest 450 518 36,000  Level Gander Center
Tue 12:37:56 PM 58.5167 -57.7667 246° West 450 518 36,000  Level Gander Center
Tue 12:38:56 PM 58.4833 -58.0000 255° West 460 529 36,000  Level Gander Center
Tue 12:39:56 PM 58.4167 -58.2333 241° Southwest 460 529 36,000  Level Gander Center
Tue 12:41:06 PM 58.3500 -58.4833 243° Southwest 460 529 36,000  Level Gander Center
Tue 12:41:56 PM 58.3333 -58.6833 261° West 460 529 36,000  Level Gander Center
Tue 12:42:56 PM 58.2667 -58.9000 240° Southwest 460 529 36,000  Level Gander Center
Tue 12:43:56 PM 58.2167 -59.1333 248° West 470 541 36,000  Level Gander Center
Tue 12:44:56 PM 58.1500 -59.3500 240° Southwest 460 529 36,000  Level Gander Center
Tue 12:45:56 PM 58.1167 -59.5833 255° West 460 529 36,000  Level Gander Center
Tue 12:46:56 PM 58.0500 -59.7667 236° Southwest 460 529 36,000  Level Gander Center
Tue 12:47:56 PM 57.9667 -59.9667 232° Southwest 460 529 36,000  Level Gander Center
Tue 12:48:56 PM 57.8667 -60.0833 212° Southwest 450 518 36,000  Level Gander Center
Tue 12:49:56 PM 57.7500 -60.2500 217° Southwest 460 529 36,000  Level Gander Center
Tue 12:51:06 PM 57.6500 -60.3833 216° Southwest 450 518 36,000  Level Gander Center
Tue 12:52:06 PM 57.5333 -60.5000 208° Southwest 460 529 36,000  Level Gander Center
Tue 12:53:06 PM 57.4333 -60.6333 216° Southwest 450 518 36,000  Level Gander Center
Tue 12:54:06 PM 57.3333 -60.7500 212° Southwest 460 529 36,000  Level Gander Center
Tue 12:55:06 PM 57.2000 -60.8500 202° Southwest 440 506 36,000  Level Gander Center
Tue 12:56:06 PM 57.0833 -60.9500 205° Southwest 450 518 36,000  Level Gander Center
Tue 12:58:23 PM 56.8333 -61.1167 200° South 450 518 36,000  Level Montreal Center
Tue 12:59:23 PM 56.7167 -61.2167 205° Southwest 450 518 36,000  Level Montreal Center
Tue 01:00:23 PM 56.6167 -61.3333 213° Southwest 440 506 36,000  Level Montreal Center
Tue 01:01:23 PM 56.5000 -61.4000 198° South 440 506 36,000  Level Montreal Center
Tue 01:02:23 PM 56.4000 -61.5000 209° Southwest 440 506 36,000  Level Montreal Center
Tue 01:03:23 PM 56.2667 -61.6167 206° Southwest 440 506 36,000  Level Montreal Center
Tue 01:04:23 PM 56.1667 -61.6833 200° South 440 506 36,000  Level Montreal Center
Tue 01:05:06 PM 56.1000 -61.7833 220° Southwest 440 506 36,000  Level Gander Center
Tue 01:06:06 PM 55.9833 -61.9167 213° Southwest 440 506 36,000  Level Gander Center
Tue 01:07:06 PM 55.8667 -62.0000 202° Southwest 440 506 36,000  Level Gander Center
Tue 01:08:06 PM 55.7500 -62.0833 202° Southwest 450 518 36,000  Level Gander Center
Tue 01:09:06 PM 55.6500 -62.1667 205° Southwest 450 518 36,000  Level Gander Center
Tue 01:10:06 PM 55.5333 -62.2500 202° Southwest 450 518 36,000  Level Gander Center
Tue 01:11:06 PM 55.4167 -62.3333 202° Southwest 450 518 36,000  Level Gander Center
Tue 01:12:06 PM 55.3167 -62.4333 210° Southwest 440 506 36,000  Level Gander Center
Tue 01:13:06 PM 55.1833 -62.5333 203° Southwest 450 518 36,000  Level Gander Center
Tue 01:14:06 PM 55.0833 -62.6167 206° Southwest 450 518 36,000  Level Gander Center
Tue 01:15:06 PM 54.9667 -62.7000 202° Southwest 460 529 36,000  Level Gander Center
Tue 01:16:06 PM 54.8333 -62.7833 200° South 460 529 36,000  Level Gander Center
Tue 01:17:06 PM 54.7167 -62.9000 210° Southwest 450 518 36,000  Level Gander Center
Tue 01:18:06 PM 54.6000 -62.9833 202° Southwest 460 529 36,000  Level Gander Center
Tue 01:19:06 PM 54.4833 -63.0667 203° Southwest 460 529 36,000  Level Gander Center
Tue 01:20:06 PM 54.3667 -63.1500 203° Southwest 460 529 36,000  Level Gander Center
Tue 01:21:06 PM 54.2667 -63.2333 206° Southwest 460 529 36,000  Level Gander Center
Tue 01:22:06 PM 54.1333 -63.3333 204° Southwest 460 529 36,000  Level Gander Center
Tue 01:23:06 PM 54.0333 -63.4167 206° Southwest 450 518 36,000  Level Gander Center
Tue 01:24:06 PM 53.9167 -63.5000 203° Southwest 450 518 36,000  Level Gander Center
Tue 01:25:06 PM 53.8000 -63.5667 199° South 460 529 36,000  Level Gander Center
Tue 01:26:06 PM 53.6667 -63.6500 200° South 450 518 36,000  Level Gander Center
Tue 01:27:06 PM 53.5500 -63.7667 211° Southwest 460 529 36,000  Level Gander Center
Tue 01:28:06 PM 53.4333 -63.8333 199° South 460 529 36,000  Level Gander Center
Tue 01:29:06 PM 53.3167 -63.9167 203° Southwest 460 529 36,000  Level Gander Center
Tue 01:30:06 PM 53.2167 -63.9833 202° Southwest 460 529 36,000  Level Gander Center
Tue 01:31:06 PM 53.0833 -64.1000 208° Southwest 470 541 36,000  Level Gander Center
Tue 01:32:06 PM 52.9667 -64.1667 199° South 460 529 36,000  Level Gander Center
Tue 01:33:06 PM 52.8333 -64.2500 201° Southwest 460 529 36,000  Level Gander Center
Tue 01:34:06 PM 52.7167 -64.3167 199° South 460 529 36,000  Level Gander Center
Tue 01:35:06 PM 52.6000 -64.4167 208° Southwest 460 529 36,000  Level Gander Center
Tue 01:36:06 PM 52.4833 -64.5000 204° Southwest 460 529 36,000  Level Gander Center
Tue 01:37:06 PM 52.3667 -64.5667 199° South 450 518 36,000  Level Gander Center
Tue 01:38:06 PM 52.2667 -64.6500 207° Southwest 450 518 36,000  Level Gander Center
Tue 01:39:06 PM 52.1500 -64.7167 199° South 450 518 36,000  Level Gander Center
Tue 01:40:06 PM 52.0167 -64.7833 197° South 450 518 36,000  Level Gander Center
Tue 01:41:06 PM 51.9000 -64.8667 204° Southwest 450 518 36,000  Level Gander Center
Tue 01:42:06 PM 51.8000 -64.9667 212° Southwest 450 518 36,000  Level Gander Center
Tue 01:43:06 PM 51.6667 -65.0333 197° South 450 518 36,000  Level Gander Center
Tue 01:44:06 PM 51.5667 -65.1000 203° Southwest 460 529 36,000  Level Gander Center
Tue 01:45:06 PM 51.4500 -65.1667 200° South 460 529 36,000  Level Gander Center
Tue 01:46:06 PM 51.3167 -65.2500 201° Southwest 450 518 36,000  Level Gander Center
Tue 01:47:06 PM 51.2000 -65.3167 200° South 450 518 36,000  Level Gander Center
Tue 01:48:06 PM 51.0833 -65.4167 208° Southwest 450 518 36,000  Level Gander Center
Tue 01:49:06 PM 50.9833 -65.4833 203° Southwest 450 518 36,000  Level Gander Center
Tue 01:50:06 PM 50.8500 -65.5500 198° South 450 518 36,000  Level Gander Center
Tue 01:51:06 PM 50.7333 -65.6167 200° South 460 529 36,000  Level Gander Center
Tue 01:52:06 PM 50.6167 -65.7167 209° Southwest 460 529 36,000  Level Gander Center
Tue 01:53:06 PM 50.5000 -65.7833 200° South 450 518 36,000  Level Gander Center
Tue 01:54:06 PM 50.3833 -65.8500 200° South 450 518 36,000  Level Gander Center
Tue 01:55:06 PM 50.2667 -65.9167 200° South 450 518 36,000  Level Gander Center
Tue 01:56:06 PM 50.1500 -65.9833 200° South 450 518 36,000  Level Gander Center
Tue 01:57:06 PM 50.0333 -66.0500 200° South 450 518 36,000  Level Gander Center
Tue 01:58:06 PM 49.9167 -66.1167 200° South 450 518 36,000  Level Gander Center
Tue 01:59:06 PM 49.8000 -66.2000 205° Southwest 450 518 36,000  Level Gander Center
Tue 02:00:06 PM 49.6833 -66.2667 200° South 450 518 36,000  Level Gander Center
Tue 02:01:06 PM 49.5667 -66.3333 200° South 450 518 36,000  Level Gander Center
Tue 02:02:06 PM 49.4500 -66.4000 200° South 450 518 36,000  Level Gander Center
Tue 02:03:06 PM 49.3333 -66.4667 200° South 440 506 36,000  Level Gander Center
Tue 02:04:06 PM 49.2167 -66.5333 200° South 440 506 36,000  Level Gander Center
Tue 02:05:06 PM 49.1167 -66.6000 204° Southwest 440 506 36,000  Level Gander Center
Tue 02:06:06 PM 48.9833 -66.6667 198° South 440 506 36,000  Level Gander Center
Tue 02:07:06 PM 48.8667 -66.7500 205° Southwest 450 518 36,000  Level Gander Center
Tue 02:08:06 PM 48.7667 -66.8167 204° Southwest 440 506 36,000  Level Gander Center
Tue 02:09:06 PM 48.6500 -66.8833 201° Southwest 440 506 36,000  Level Gander Center
Tue 02:10:06 PM 48.5333 -66.9333 196° South 430 495 36,000  Level Gander Center
Tue 02:11:06 PM 48.4167 -67.0000 201° Southwest 430 495 36,000  Level Gander Center
Tue 02:12:06 PM 48.3000 -67.0667 201° Southwest 430 495 36,000  Level Gander Center
Tue 02:13:06 PM 48.2000 -67.1333 204° Southwest 430 495 36,000  Level Gander Center
Tue 02:14:06 PM 48.0833 -67.1833 196° South 440 506 36,000  Level Gander Center
Tue 02:15:06 PM 47.9667 -67.2500 201° Southwest 440 506 36,000  Level Gander Center
Tue 02:16:06 PM 47.8500 -67.3167 201° Southwest 440 506 36,000  Level Gander Center
Tue 02:17:06 PM 47.7500 -67.3667 199° South 430 495 36,000  Level Gander Center
Tue 02:18:06 PM 47.6500 -67.4667 214° Southwest 420 483 36,000  Level Gander Center
Tue 02:19:06 PM 47.5333 -67.5500 206° Southwest 420 483 36,000  Level Gander Center
Tue 02:24:27 PM 46.9969 -67.9917 209° Southwest 418 481 36,000  Level FlightAware ADS-B (KBGR)
Tue 02:25:48 PM 46.8602 -68.1009 209° Southwest 415 478 36,000  Level FlightAware ADS-B (KBGR)
Tue 02:26:24 PM 46.7999 -68.1489 209° Southwest 412 474 36,000  Level FlightAware ADS-B (KBGR)
Tue 02:27:57 PM 46.6512 -68.2666 209° Southwest 411 473 36,000  Level FlightAware ADS-B (KBGR)
Tue 02:28:41 PM 46.5811 -68.3219 209° Southwest 411 473 36,000  Level FlightAware ADS-B (KBGR)
Tue 02:29:12 PM 46.5259 -68.3653 208° Southwest 412 474 36,000  Level FlightAware ADS-B (KBGR)
Tue 02:29:54 PM 46.4492 -68.4255 208° Southwest 412 474 36,000  Level FlightAware ADS-B (KBGR)
Tue 02:30:27 PM 46.3950 -68.4678 208° Southwest 410 472 36,000  Level FlightAware ADS-B (KBGR)
Tue 02:31:11 PM 46.3218 -68.5250 208° Southwest 410 472 36,000  Level FlightAware ADS-B (KBGR)
Tue 02:31:42 PM 46.2705 -68.5648 208° Southwest 410 472 36,000  Level FlightAware ADS-B (KBGR)
Tue 02:32:24 PM 46.2000 -68.6196 208° Southwest 412 474 36,000  Level FlightAware ADS-B (KBGR)
Tue 02:33:27 PM 46.0956 -68.7003 208° Southwest 414 476 36,000  Level FlightAware ADS-B (KBGR)
Tue 02:34:10 PM 46.0203 -68.7583 208° Southwest 415 478 36,000  Level FlightAware ADS-B (KBGR)
Tue 02:34:40 PM 45.9697 -68.7971 208° Southwest 416 479 36,000  Level FlightAware ADS-B (KBGR)
Tue 02:35:12 PM 45.9169 -68.8376 208° Southwest 417 480 36,000  Level FlightAware ADS-B (KBGR)
Tue 02:35:57 PM 45.8405 -68.8960 208° Southwest 417 480 36,000  Level FlightAware ADS-B (KBGR)
Tue 02:36:27 PM 45.7889 -68.9354 208° Southwest 418 481 36,000  Level FlightAware ADS-B (KBGR)
Tue 02:36:57 PM 45.7383 -68.9738 208° Southwest 418 481 36,000  Level FlightAware ADS-B (KBGR)
Tue 02:37:41 PM 45.6633 -69.0307 208° Southwest 419 482 36,000  Level FlightAware ADS-B (KBGR)
Tue 02:38:11 PM 45.6118 -69.0697 208° Southwest 420 483 36,000  Level FlightAware ADS-B (KBGR)
Tue 02:38:42 PM 45.5576 -69.1107 208° Southwest 421 484 36,000  Level FlightAware ADS-B (KBGR)
Tue 02:39:27 PM 45.4830 -69.1668 208° Southwest 423 487 36,000  Level FlightAware ADS-B (KBGR)
Tue 02:39:57 PM 45.4291 -69.2074 208° Southwest 425 489 36,000  Level FlightAware ADS-B (KBGR)
Tue 02:40:28 PM 45.3758 -69.2472 208° Southwest 429 494 36,000  Level FlightAware ADS-B (KBGR)
Tue 02:41:13 PM 45.2946 -69.3079 208° Southwest 431 496 36,000  Level FlightAware ADS-B (KBGR)
Tue 02:41:55 PM 45.2213 -69.3625 208° Southwest 432 497 36,000  Level FlightAware ADS-B (WASR / MKW)
Tue 02:42:28 PM 45.1686 -69.4017 208° Southwest 431 496 36,000  Level FlightAware ADS-B (KBGR)
Tue 02:42:58 PM 45.1123 -69.4435 208° Southwest 430 495 36,000  Level FlightAware ADS-B (KBGR)
Tue 02:43:28 PM 45.0579 -69.4837 208° Southwest 429 494 36,000  Level FlightAware ADS-B (KBGR)
Tue 02:43:58 PM 45.0135 -69.5166 208° Southwest 428 493 36,000  Level FlightAware ADS-B (KBGR)
Tue 02:44:28 PM 44.9526 -69.5615 208° Southwest 428 493 36,000  Level FlightAware ADS-B (KBGR)
Tue 02:44:58 PM 44.9030 -69.5979 208° Southwest 427 491 36,000  Level FlightAware ADS-B (KBGR)
Tue 02:45:43 PM 44.8220 -69.6574 208° Southwest 426 490 36,000  Level FlightAware ADS-B (KBGR)
Tue 02:46:29 PM 44.7412 -69.7165 208° Southwest 426 490 36,000  Level FlightAware ADS-B (KBGR)
Tue 02:47:15 PM 44.6615 -69.7746 207° Southwest 426 490 36,000  Level FlightAware ADS-B (WASR / MKW)
Tue 02:47:58 PM 44.5855 -69.8298 207° Southwest 426 490 36,000  Level FlightAware ADS-B (KBGR)
Tue 02:48:14 PM 44.5565 -69.8509 207° Southwest 426 490 36,000  Level FlightAware ADS-B (WASR / MKW)
Tue 02:48:51 PM 44.5007 -69.8913 207° Southwest 428 493 36,000  Level FlightAware ADS-B (WASR / MKW)
Tue 02:49:29 PM 44.4320 -69.9409 207° Southwest 429 494 36,000  Level FlightAware ADS-B (KBGR)
Tue 02:49:59 PM 44.3737 -69.9829 207° Southwest 430 495 36,000  Level FlightAware ADS-B (KBGR)
Tue 02:50:29 PM 44.3206 -70.0210 207° Southwest 430 495 36,000  Level FlightAware ADS-B (KBGR)
Tue 02:50:59 PM 44.2686 -70.0583 207° Southwest 430 495 36,000  Level FlightAware ADS-B (KBGR)
Tue 02:51:39 PM 44.1953 -70.1108 207° Southwest 429 494 36,000  Level FlightAware ADS-B (KBGR)
Tue 02:52:10 PM 44.1422 -70.1487 207° Southwest 429 494 36,000  Level FlightAware ADS-B (KBGR)
Tue 02:52:28 PM 44.1103 -70.1715 207° Southwest 429 494 36,000  Level FlightAware ADS-B (EGUN / MHZ)
Tue 02:52:34 PM 44.0987 -70.1797 208° Southwest 423 487 36,000  Level FlightAware ADS-B (KASH)
Tue 02:53:13 PM 44.0332 -70.2263 207° Southwest 429 494 36,000  Level FlightAware ADS-B (KBGR)
Tue 02:53:50 PM 43.9646 -70.2750 208° Southwest 422 486 36,000  Level FlightAware ADS-B (KASH)
Tue 02:54:47 PM 44.0332 -70.2263 207° Southwest 432 497 36,000  Level FlightAware ADS-B (KBGR)
Tue 02:56:55 PM 43.6369 -70.5058 207° Southwest 432 497 36,000  Level FlightAware ADS-B (KASH)
Tue 02:57:36 PM 43.5631 -70.5573 207° Southwest 433 498 36,000  Level FlightAware ADS-B (KASH)
Tue 02:58:06 PM 43.5090 -70.5951 207° Southwest 433 498 36,000  Level FlightAware ADS-B (KASH)
Tue 02:58:38 PM 43.4523 -70.6345 207° Southwest 433 498 36,000  Level FlightAware ADS-B (KASH)
Tue 02:59:15 PM 43.3908 -70.6772 207° Southwest 431 496 36,000  Level FlightAware ADS-B (KBOS)
Tue 02:59:55 PM 43.3206 -70.7259 207° Southwest 433 498 36,000  Level FlightAware ADS-B (KBOS)
Tue 03:00:25 PM 43.2627 -70.7659 207° Southwest 433 498 36,000  Level FlightAware ADS-B (KBOS)
Tue 03:00:55 PM 43.2098 -70.8023 207° Southwest 432 497 36,000  Level FlightAware ADS-B (KBOS)
Tue 03:01:29 PM 43.1486 -70.8444 207° Southwest 433 498 36,000  Level FlightAware ADS-B (KBOS)
Tue 03:01:59 PM 43.0956 -70.8809 207° Southwest 433 498 36,000  Level FlightAware ADS-B (KBOS)
Tue 03:02:34 PM 43.0331 -70.9236 207° Southwest 432 497 36,000  Level FlightAware ADS-B (KBOS)
Tue 03:03:09 PM 42.9696 -70.9670 207° Southwest 431 496 36,000  Level FlightAware ADS-B (KASH)
Tue 03:03:39 PM 42.9175 -71.0025 207° Southwest 431 496 36,000  Level FlightAware ADS-B (KBOS)
Tue 03:04:10 PM 42.8611 -71.0409 207° Southwest 429 494 36,000  Level FlightAware ADS-B (KASH)
Tue 03:04:40 PM 42.8101 -71.0756 207° Southwest 428 493 36,000  Level FlightAware ADS-B (KBOS)
Tue 03:05:10 PM 42.7560 -71.1122 207° Southwest 427 491 36,000  Level FlightAware ADS-B (KBOS)
Tue 03:05:40 PM 42.7026 -71.1484 207° Southwest 427 491 36,000  Level FlightAware ADS-B (KBOS)
Tue 03:06:10 PM 42.6506 -71.1835 206° Southwest 427 491 36,000  Level FlightAware ADS-B (KBOS)
Tue 03:06:41 PM 42.5951 -71.2209 206° Southwest 429 494 36,000  Level FlightAware ADS-B (KBOS)
Tue 03:07:11 PM 42.5446 -71.2549 206° Southwest 430 495 36,000  Level FlightAware ADS-B (KBOS)
Tue 03:07:41 PM 42.4884 -71.2927 206° Southwest 431 496 36,000  Level FlightAware ADS-B (KBOS)
Tue 03:08:12 PM 42.4339 -71.3292 206° Southwest 432 497 36,000  Level FlightAware ADS-B (KASH)
Tue 03:08:42 PM 42.3823 -71.3637 206° Southwest 432 497 36,000  Level FlightAware ADS-B (KBOS)
Tue 03:09:26 PM 42.2995 -71.4190 206° Southwest 432 497 36,000  Level FlightAware ADS-B (KASH)
Tue 03:09:56 PM 42.2460 -71.4546 206° Southwest 432 497 36,000  Level FlightAware ADS-B (KASH)
Tue 03:10:26 PM 42.1921 -71.4903 206° Southwest 433 498 36,000  Level FlightAware ADS-B (KASH)
Tue 03:10:56 PM 42.1376 -71.5265 206° Southwest 434 499 36,000  Level FlightAware ADS-B (KASH)
Tue 03:11:26 PM 42.0837 -71.5621 206° Southwest 435 501 36,000  Level FlightAware ADS-B (KASH)
Tue 03:11:56 PM 42.0295 -71.5980 206° Southwest 435 501 36,000  Level FlightAware ADS-B (KASH)
Tue 03:12:34 PM 41.9999 -71.6175 206° Southwest 435 501 36,000  Level FlightAware ADS-B (KOWD)
Tue 03:13:11 PM 41.8950 -71.6876 210° Southwest 424 488 36,000  Level FlightAware ADS-B (KASH)
Tue 03:13:42 PM 41.8452 -71.7325 214° Southwest 426 490 36,000  Level FlightAware ADS-B (KASH)
Tue 03:14:12 PM 41.7952 -71.7776 214° Southwest 428 493 36,000  Level FlightAware ADS-B (KASH)
Tue 03:14:45 PM 41.7422 -71.8253 214° Southwest 430 495 36,000  Level FlightAware ADS-B (KOWD)
Tue 03:15:25 PM 41.6757 -71.8850 214° Southwest 430 495 36,000  Level FlightAware ADS-B (KOWD)
Tue 03:16:04 PM 41.6107 -71.9432 214° Southwest 432 497 36,000  Level FlightAware ADS-B (KOWD)
Tue 03:16:35 PM 41.5604 -71.9882 214° Southwest 433 498 36,000  Level FlightAware ADS-B (KOWD)
Tue 03:17:06 PM 41.5118 -72.0315 214° Southwest 433 498 36,000  Level FlightAware ADS-B (KOWD)
Tue 03:18:29 PM 41.3711 -72.1564 214° Southwest 428 493 36,000  Level FlightAware ADS-B (KWWD)
Tue 03:19:43 PM 41.2448 -72.2680 214° Southwest 428 493 36,000  Level FlightAware ADS-B (KWWD)
Tue 03:20:30 PM 41.1675 -72.3361 214° Southwest 434 499 36,000  Level FlightAware ADS-B (KPHL)
Tue 03:22:25 PM 40.9737 -72.5057 214° Southwest 433 498 36,000  Level FlightAware ADS-B (KPHL)
Tue 03:23:16 PM 40.8894 -72.5792 213° Southwest 436 502 36,000  Level FlightAware ADS-B (KPHL)
Tue 03:23:52 PM 40.8282 -72.6323 214° Southwest 427 491 36,000  Level FlightAware ADS-B (KWWD)
Tue 03:24:26 PM 40.7753 -72.6782 213° Southwest 440 506 36,000  Level FlightAware ADS-B (KWWD)
Tue 03:25:07 PM 40.7010 -72.7424 213° Southwest 440 506 36,000  Level FlightAware ADS-B (KWWD)
Tue 03:25:52 PM 40.6242 -72.8087 213° Southwest 439 505 36,000  Level FlightAware ADS-B (KWWD)
Tue 03:26:31 PM 40.5591 -72.8647 214° Southwest 431 496 36,000  Level FlightAware ADS-B (KWWD)
Tue 03:27:06 PM 40.4995 -72.9159 214° Southwest 431 496 36,000  Level FlightAware ADS-B (KWWD)
Tue 03:27:49 PM 40.4286 -72.9765 214° Southwest 430 495 36,000  Level FlightAware ADS-B (KWWD)
Tue 03:28:24 PM 40.3664 -73.0297 214° Southwest 430 495 36,000  Level FlightAware ADS-B (KWWD)
Tue 03:29:05 PM 40.2980 -73.0880 213° Southwest 438 504 36,000  Level FlightAware ADS-B (KWWD)
Tue 03:29:36 PM 40.2458 -73.1324 213° Southwest 439 505 36,000  Level FlightAware ADS-B (KWWD)
Tue 03:30:25 PM 40.1620 -73.2035 213° Southwest 442 509 36,000  Level FlightAware ADS-B (KWWD)
Tue 03:30:56 PM 40.1081 -73.2495 213° Southwest 442 509 36,000  Level FlightAware ADS-B (KWWD)
Tue 03:31:17 PM 40.0745 -73.2818 219° Southwest 433 498 36,000  Level FlightAware ADS-B (KWWD)
Tue 03:31:35 PM 40.0458 -73.3134 221° Southwest 439 505 36,000  Level FlightAware ADS-B (KPHL)
Tue 03:32:17 PM 39.9834 -73.3846 221° Southwest 438 504 36,000  Level FlightAware ADS-B (KPHL)
Tue 03:32:48 PM 39.9377 -73.4361 221° Southwest 437 503 36,000  Level FlightAware ADS-B (KPHL)
Tue 03:33:27 PM 39.8753 -73.5058 221° Southwest 432 497 36,000  Level FlightAware ADS-B (KWWD)
Tue 03:34:04 PM 39.8184 -73.5692 221° Southwest 438 504 36,000  Level FlightAware ADS-B (KPHL)
Tue 03:34:49 PM 39.7501 -73.6450 221° Southwest 435 501 36,000  Level FlightAware ADS-B (KPHL)
Tue 03:35:19 PM 39.7045 -73.6956 221° Southwest 436 502 36,000  Level FlightAware ADS-B (KPHL)
Tue 03:35:49 PM 39.6583 -73.7467 220° Southwest 436 502 36,000  Level FlightAware ADS-B (KPHL)
Tue 03:36:34 PM 39.5888 -73.8235 221° Southwest 434 499 36,000  Level FlightAware ADS-B (KPHL)
Tue 03:37:04 PM 39.5431 -73.8738 220° Southwest 435 501 36,000  Level FlightAware ADS-B (KPHL)
Tue 03:37:34 PM 39.4985 -73.9229 220° Southwest 435 501 36,000  Level FlightAware ADS-B (KPHL)
Tue 03:37:42 PM 39.4836 -73.9394 221° Southwest 430 495 36,000  Level FlightAware ADS-B (KWWD)
Tue 03:38:19 PM 39.4326 -73.9952 220° Southwest 434 499 36,000  Level FlightAware ADS-B (KPHL)
Tue 03:38:58 PM 39.3673 -74.0668 221° Southwest 427 491 36,000  Level FlightAware ADS-B (KWWD)
Tue 03:39:34 PM 39.3130 -74.1260 221° Southwest 426 490 36,000  Level FlightAware ADS-B (KWWD)
Tue 03:40:19 PM 39.2446 -74.2006 221° Southwest 427 491 36,000  Level FlightAware ADS-B (KWWD)
Tue 03:40:59 PM 39.1826 -74.2678 221° Southwest 426 490 36,000  Level FlightAware ADS-B (KWWD)
Tue 03:41:16 PM 39.1582 -74.2943 221° Southwest 425 489 36,000  Level FlightAware ADS-B (KWWD)
Tue 03:41:48 PM 39.1081 -74.3485 221° Southwest 425 489 36,000  Level FlightAware ADS-B (KWWD)
Tue 03:42:18 PM 39.0694 -74.3903 220° Southwest 431 496 36,000  Level FlightAware ADS-B (KPHL)
Tue 03:42:59 PM 39.0001 -74.4651 221° Southwest 425 489 36,000  Level FlightAware ADS-B (KWWD)
Tue 03:43:13 PM 38.9796 -74.4872 221° Southwest 425 489 36,000  Level FlightAware ADS-B (KWWD)
Tue 03:43:22 PM 38.9685 -74.4991 221° Southwest 425 489 36,000  Level FlightAware ADS-B (KWWD)
Tue 03:44:15 PM 38.8843 -74.5896 221° Southwest 426 490 36,000  Level FlightAware ADS-B (KWWD)
Tue 03:44:48 PM 38.8341 -74.6433 221° Southwest 427 491 36,000  Level FlightAware ADS-B (KWWD)
Tue 03:45:27 PM 38.7753 -74.7062 221° Southwest 428 493 36,000  Level FlightAware ADS-B (KWWD)
Tue 03:46:05 PM 38.7145 -74.7710 221° Southwest 429 494 36,000  Level FlightAware ADS-B (KWWD)
Tue 03:46:26 PM 38.6856 -74.8004 214° Southwest 437 503 36,000  Level FlightAware ADS-B
Tue 03:46:39 PM 38.6591 -74.8182 199° South 444 511 36,000  Level FlightAware ADS-B
Tue 03:47:38 PM 38.5523 -74.8885 224° Southwest 433 498 36,000  Level FlightAware ADS-B (KWWD)
Tue 03:48:51 PM 38.5433 -74.9001 227° Southwest 432 497 36,000  Level FlightAware ADS-B
Tue 03:50:02 PM 38.3831 -75.0993 210° Southwest 434 499 36,000  Level FlightAware ADS-B
Tue 03:50:36 PM 38.2831 -75.1714 210° Southwest 436 502 36,000  Level FlightAware ADS-B
Tue 03:51:09 PM 38.2225 -75.2156 210° Southwest 431 496 36,000  Level FlightAware ADS-B (KWWD)
Tue 03:51:58 PM 38.1357 -75.2784 210° Southwest 432 497 36,000  Level FlightAware ADS-B (KWWD)
Tue 03:52:32 PM 38.0787 -75.3196 210° Southwest 438 504 36,000  Level FlightAware ADS-B
Tue 03:53:14 PM 38.0076 -75.3709 210° Southwest 435 501 36,000  Level FlightAware ADS-B
Tue 03:53:45 PM 37.9483 -75.4137 210° Southwest 435 501 36,000  Level FlightAware ADS-B
Tue 03:54:27 PM 37.8754 -75.4664 210° Southwest 428 493 36,000  Level FlightAware ADS-B (KWWD)
Tue 03:54:59 PM 37.8194 -75.5066 210° Southwest 428 493 36,000  Level FlightAware ADS-B (KWWD)
Tue 03:55:31 PM 37.7637 -75.5466 210° Southwest 436 502 36,000  Level FlightAware ADS-B
Tue 03:56:01 PM 37.7103 -75.5851 210° Southwest 436 502 36,000  Level FlightAware ADS-B
Tue 03:56:41 PM 37.6408 -75.6347 210° Southwest 428 493 36,000  Level FlightAware ADS-B (KWWD)
Tue 03:57:38 PM 37.5400 -75.7067 210° Southwest 427 491 36,000  Level FlightAware ADS-B (KWWD)
Tue 03:58:12 PM 37.4814 -75.7484 210° Southwest 429 494 36,000  Level FlightAware ADS-B (KWWD)
Tue 03:58:44 PM 37.4256 -75.7881 210° Southwest 435 501 36,000  Level FlightAware ADS-B
Tue 03:59:40 PM 37.3271 -75.8579 210° Southwest 426 490 36,000  Level FlightAware ADS-B (KWWD)
Tue 04:00:11 PM 37.2741 -75.8955 210° Southwest 425 489 36,000  Level FlightAware ADS-B (KWWD)
Tue 04:00:43 PM 37.2175 -75.9354 210° Southwest 429 494 36,000  Level FlightAware ADS-B
Tue 04:01:21 PM 37.1526 -75.9812 209° Southwest 429 494 36,000  Level FlightAware ADS-B (KWWD)
Tue 04:01:59 PM 37.0856 -76.0283 210° Southwest 423 487 36,000  Level FlightAware ADS-B (KWWD)
Tue 04:02:30 PM 37.0313 -76.0664 210° Southwest 426 490 36,000  Level FlightAware ADS-B (KWWD)
Tue 04:03:15 PM 36.9533 -76.1212 210° Southwest 429 494 36,000  Level FlightAware ADS-B (KWWD)
Tue 04:03:47 PM 36.9007 -76.1579 210° Southwest 429 494 36,000  Level FlightAware ADS-B (KWWD)
Tue 04:04:20 PM 36.8400 -76.2003 210° Southwest 435 501 36,000  Level FlightAware ADS-B
Tue 04:05:00 PM 36.7685 -76.2501 210° Southwest 427 491 36,000  Level FlightAware ADS-B (KWWD)
Tue 04:05:38 PM 36.7023 -76.2962 210° Southwest 434 499 36,000  Level FlightAware ADS-B
Tue 04:07:26 PM 36.5121 -76.4280 210° Southwest 428 493 36,000  Level FlightAware ADS-B (KWWD)
Tue 04:08:32 PM 36.3955 -76.5083 210° Southwest 428 493 36,000  Level FlightAware ADS-B (KWWD)
Tue 04:09:29 PM 36.2954 -76.5772 210° Southwest 428 493 36,000  Level FlightAware ADS-B (KWWD)
Tue 04:09:59 PM 36.2429 -76.6132 210° Southwest 428 493 36,000  Level FlightAware ADS-B (KWWD)
Tue 04:11:39 PM 36.0681 -76.7326 210° Southwest 428 493 36,000  Level FlightAware ADS-B (KWWD)
Tue 04:12:57 PM 35.9347 -76.8208 210° Southwest 441 507 36,000  Level Washington Center
Tue 04:13:58 PM 35.8297 -76.8908 208° Southwest 441 507 36,000  Level Washington Center
Tue 04:14:59 PM 35.7247 -76.9633 209° Southwest 441 507 36,000  Level Washington Center
Tue 04:15:57 PM 35.6383 -77.0181 207° Southwest 441 507 36,000  Level Washington Center
Tue 04:16:58 PM 35.5289 -77.0978 211° Southwest 431 496 36,000  Level Washington Center
Tue 04:17:59 PM 35.4217 -77.1697 209° Southwest 431 496 36,000  Level Washington Center
Tue 04:18:57 PM 35.3144 -77.2339 206° Southwest 436 502 36,000  Level Washington Center
Tue 04:19:58 PM 35.1969 -77.2772 197° South 436 502 36,000  Level Washington Center
Tue 04:20:58 PM 35.0836 -77.3206 197° South 436 502 36,000  Level Washington Center
Tue 04:21:58 PM 34.9661 -77.3636 197° South 436 502 36,000  Level Washington Center
Tue 04:22:59 PM 34.8486 -77.4067 197° South 444 511 36,000  Level Washington Center
Tue 04:23:57 PM 34.7228 -77.4619 200° South 444 511 36,000  Level Washington Center
Tue 04:24:59 PM 34.6072 -77.5022 196° South 444 511 36,000  Level Washington Center
Tue 04:25:57 PM 34.4897 -77.5472 198° South 444 511 36,000  Level Washington Center
Tue 04:26:58 PM 34.3742 -77.5900 197° South 444 511 36,000  Level Washington Center
Tue 04:28:57 PM 34.1475 -77.6661 196° South 441 507 36,000  Level Jacksonville Center
Tue 04:29:57 PM 34.0303 -77.7108 198° South 441 507 36,000  Level Jacksonville Center
Tue 04:30:57 PM 33.9153 -77.7503 196° South 441 507 36,000  Level Jacksonville Center
Tue 04:31:57 PM 33.7981 -77.7919 196° South 436 502 36,000  Level Jacksonville Center
Tue 04:32:57 PM 33.6808 -77.8361 197° South 436 502 36,000  Level Jacksonville Center
Tue 04:33:57 PM 33.5639 -77.8878 200° South 441 507 36,000  Level Jacksonville Center
Tue 04:34:57 PM 33.4467 -77.9292 196° South 441 507 36,000  Level Jacksonville Center
Tue 04:35:57 PM 33.3272 -77.9708 196° South 441 507 36,000  Level Jacksonville Center
Tue 04:36:57 PM 33.2100 -78.0144 197° South 441 507 36,000  Level Jacksonville Center
Tue 04:37:57 PM 33.0947 -78.0531 196° South 441 507 36,000  Level Jacksonville Center
Tue 04:38:57 PM 32.9775 -78.0989 198° South 441 507 36,000  Level Jacksonville Center
Tue 04:39:57 PM 32.8600 -78.1372 195° South 436 502 36,000  Level Jacksonville Center
Tue 04:40:57 PM 32.7428 -78.1831 198° South 436 502 36,000  Level Jacksonville Center
Tue 04:41:57 PM 32.6272 -78.2211 196° South 436 502 36,000  Level Jacksonville Center
Tue 04:42:57 PM 32.5097 -78.2617 196° South 436 502 36,000  Level Jacksonville Center
Tue 04:43:57 PM 32.3922 -78.3019 196° South 431 496 36,000  Level Jacksonville Center
Tue 04:44:57 PM 32.2792 -78.3519 201° Southwest 431 496 36,000  Level Jacksonville Center
Tue 04:45:57 PM 32.1639 -78.3919 196° South 437 503 36,000  Level Jacksonville Center
Tue 04:46:57 PM 32.0464 -78.4344 197° South 437 503 36,000  Level Jacksonville Center
Tue 04:47:57 PM 31.9308 -78.4744 196° South 432 497 36,000  Level Jacksonville Center
Tue 04:48:57 PM 31.8153 -78.5142 196° South 437 503 36,000  Level Jacksonville Center
Tue 04:49:57 PM 31.6958 -78.5564 197° South 442 509 36,000  Level Jacksonville Center
Tue 04:50:57 PM 31.5761 -78.5986 197° South 442 509 36,000  Level Jacksonville Center
Tue 04:51:57 PM 31.4625 -78.6378 196° South 437 503 36,000  Level Jacksonville Center
Tue 04:52:57 PM 31.3450 -78.6772 196° South 437 503 36,000  Level Jacksonville Center
Tue 04:53:57 PM 31.2272 -78.7189 197° South 437 503 36,000  Level Jacksonville Center
Tue 04:54:57 PM 31.1075 -78.7606 197° South 437 503 36,000  Level Jacksonville Center
Tue 04:55:57 PM 30.9900 -78.8022 197° South 437 503 36,000  Level Jacksonville Center
Tue 04:56:57 PM 30.8764 -78.8433 197° South 437 503 36,000  Level Jacksonville Center
Tue 04:57:57 PM 30.7544 -78.8825 195° South 442 509 36,000  Level Jacksonville Center
Tue 04:58:57 PM 30.6411 -78.9233 197° South 437 503 36,000  Level Jacksonville Center
Tue 04:59:57 PM 30.5233 -78.9619 196° South 432 497 36,000  Level Jacksonville Center
Tue 05:00:57 PM 30.4117 -79.0003 196° South 432 497 36,000  Level Jacksonville Center
Tue 05:02:20 PM 30.2536 -79.0700 201° Southwest 438 504 36,000  Level Miami Center
Tue 05:03:22 PM 30.1397 -79.1203 201° Southwest 437 503 36,000  Level Miami Center
Tue 05:04:23 PM 30.0253 -79.1686 200° South 437 503 36,000  Level Miami Center
Tue 05:05:25 PM 29.8894 -79.2181 198° South 437 503 36,000  Level Miami Center
Tue 05:06:27 PM 29.7758 -79.2628 199° South 437 503 36,000  Level Miami Center
Tue 05:07:29 PM 29.6622 -79.3078 199° South 435 501 36,000  Level Miami Center
Tue 05:08:31 PM 29.5475 -79.3508 198° South 433 498 36,000  Level Miami Center
Tue 05:09:33 PM 29.4317 -79.3928 198° South 432 497 36,000  Level Miami Center
Tue 05:10:34 PM 29.3175 -79.4361 198° South 432 497 36,000  Level Miami Center
Tue 05:11:36 PM 29.1822 -79.4881 199° South 430 495 36,000  Level Miami Center
Tue 05:12:38 PM 29.0669 -79.5317 198° South 431 496 36,000  Level Miami Center
Tue 05:13:40 PM 28.9522 -79.5731 198° South 431 496 36,000  Level Miami Center
Tue 05:14:42 PM 28.8372 -79.6161 198° South 431 496 36,000  Level Miami Center
Tue 05:15:43 PM 28.7231 -79.6586 198° South 431 496 36,000  Level Miami Center
Tue 05:16:45 PM 28.6081 -79.7011 198° South 432 497 36,000  Level Miami Center
Tue 05:17:47 PM 28.4944 -79.7439 198° South 432 497 36,000  Level Miami Center
Tue 05:18:48 PM 28.3783 -79.7858 198° South 433 498 36,000  Level Miami Center
Tue 05:19:50 PM 28.2417 -79.8369 198° South 431 496 36,000  Level Miami Center
Tue 05:20:52 PM 28.1258 -79.8797 198° South 434 499 36,000  Level Miami Center
Tue 05:21:54 PM 28.0025 -79.9236 197° South 439 505 36,000 293 Level Miami Center
Tue 05:22:55 PM 27.8817 -79.9686 198° South 437 503 36,600 780 Climbing Miami Center
Tue 05:23:57 PM 27.7747 -80.0069 198° South 443 510 37,600 677 Climbing Miami Center
Tue 05:24:59 PM 27.6544 -80.0506 198° South 445 512 38,000 195 Climbing Miami Center
Tue 05:26:00 PM 27.5347 -80.0944 198° South 448 516 38,000  Level Miami Center
Tue 05:27:02 PM 27.4153 -80.1375 198° South 448 516 38,000  Level Miami Center
Tue 05:28:04 PM 27.2739 -80.1897 198° South 447 514 38,000 -49 Level Miami Center
Tue 05:29:05 PM 27.1550 -80.2328 198° South 447 514 37,900  Descending Miami Center
Tue 05:30:07 PM 27.0367 -80.2750 198° South 447 514 38,000 49 Climbing Miami Center
Tue 05:31:08 PM 26.9169 -80.3186 198° South 447 514 38,000  Level Miami Center
Tue 05:32:10 PM 26.7981 -80.3611 198° South 447 514 38,000  Level Miami Center
Tue 05:33:12 PM 26.6611 -80.4103 198° South 448 516 38,000  Level Miami Center
Tue 05:34:13 PM 26.5431 -80.4528 198° South 449 517 38,000  Level Miami Center
Tue 05:35:15 PM 26.4239 -80.4956 198° South 449 517 38,000  Level Miami Center
Tue 05:36:16 PM 26.3119 -80.5739 212° Southwest 446 513 38,000  Level Miami Center
Tue 05:37:18 PM 26.2122 -80.6578 217° Southwest 451 519 38,000  Level Miami Center
Tue 05:38:20 PM 26.1133 -80.7436 218° Southwest 451 519 38,000  Level Miami Center
Tue 05:39:21 PM 26.0144 -80.8297 218° Southwest 452 520 38,000  Level Miami Center
Tue 05:40:23 PM 25.9144 -80.9144 217° Southwest 453 521 38,000  Level Miami Center
Tue 05:41:24 PM 25.8167 -80.9981 218° Southwest 449 517 38,000  Level Miami Center
Tue 05:42:26 PM 25.7169 -81.0836 218° Southwest 455 524 38,000  Level Miami Center
Tue 05:43:28 PM 25.5978 -81.1864 218° Southwest 453 521 38,000  Level Miami Center
Tue 05:44:29 PM 25.4983 -81.2711 218° Southwest 453 521 38,000  Level Miami Center
Tue 05:45:31 PM 25.3972 -81.3544 217° Southwest 454 522 38,000  Level Miami Center
Tue 05:46:32 PM 25.2975 -81.4394 218° Southwest 454 522 38,000  Level Miami Center
Tue 05:47:34 PM 25.1981 -81.5231 217° Southwest 453 521 38,000  Level Miami Center
Tue 05:48:35 PM 25.0981 -81.6072 217° Southwest 453 521 38,000  Level Miami Center
Tue 05:49:37 PM 24.9978 -81.6919 217° Southwest 453 521 38,000 -484 Level Miami Center
Tue 05:50:39 PM 24.8794 -81.7919 217° Southwest 449 517 37,000 -976 Descending Miami Center
Tue 05:51:40 PM 24.7775 -81.8767 217° Southwest 456 525 36,000 -976 Descending Miami Center
Tue 05:52:42 PM 24.6750 -81.9631 217° Southwest 461 531 35,000 -1,366 Descending Miami Center
Tue 05:53:43 PM 24.5722 -82.0475 217° Southwest 462 532 33,200 -1,805 Descending Miami Center
Tue 05:54:45 PM 24.4719 -82.1317 217° Southwest 460 529 31,300 -1,839 Descending Miami Center
Tue 05:55:47 PM 24.3739 -82.2117 217° Southwest 442 509 29,400 -1,902 Descending Miami Center
Tue 05:56:48 PM 24.2783 -82.2917 217° Southwest 437 503 27,400 -2,049 Descending Miami Center
Tue 05:57:50 PM 24.1644 -82.3839 216° Southwest 426 490 25,200 -1,854 Descending Miami Center
Tue 05:58:51 PM 24.0864 -82.4492 217° Southwest 416 479 23,600 -1,574 Descending Miami Center
Tue 06:00:00 PM 23.9740 -82.5129 173° South  Level FlightAware Approximate
Tue 06:07:00 PM 23.1287 -82.4157 170° South  Level FlightAware Approximate
Tue 06:08:00 PM 23.0085 -82.4000 180° South  Level FlightAware Approximate
Tue 06:09:00 PM 22.9891 -82.4091 180° South  Level Estimated
Tue 06:10:00 PM 22.9891 -82.4091 180° South  Level Estimated
Tue 06:11:00 PM 22.9891 -82.4091 180° South  Level Estimated
Tue 06:12:00 PM 22.9891 -82.4091 180° South  Level Estimated
Tue 06:13:00 PM 22.9891 -82.4091 180° South  Level Estimated
Tue 06:14:00 PM 22.9891 -82.4091 180° South  Level Estimated
Tue 06:15:00 PM 22.9891 -82.4091 180° South  Level Estimated
Tue 06:16:00 PM 22.9891 -82.4091 180° South  Level Estimated
Tue 06:17:00 PM 22.9891 -82.4091 180° South  Level Estimated
Tue 06:18:00 PM 22.9891 -82.4091 180° South  Level Estimated
Tue 06:19:00 PM 22.9891 -82.4091 180° South  Level Estimated
Tue 06:20:00 PM 22.9891 -82.4091 180° South  Level Estimated
Tue 06:21:00 PM 22.9891 -82.4091 180° South  Level Estimated
Tue 06:22:00 PM 22.9891 -82.4091 180° South  Level Estimated
Tue 06:23:00 PM 22.9891 -82.4091 180° South  Level Estimated
Tue 06:24:00 PM 22.9891 -82.4091 180° South  Level Estimated
Tue 06:25:00 PM 22.9891 -82.4091 180° South  Level Estimated
Tue 06:26:00 PM 22.9891 -82.4091 180° South  Level Estimated
Tue 06:27:00 PM 22.9891 -82.4091 180° South  Level Estimated
Tue 06:28:00 PM 22.9891 -82.4091 180° South  Level Estimated
Tue 06:29:00 PM 22.9891 -82.4091 180° South  Level Estimated
Tue 06:30:00 PM 22.9891 -82.4091 180° South  Level Estimated

Login

Don't have an account? Register now (free) for customized features, flight alerts, and more!